Location: Recife
(8.0585°S, 34.8848°W)
Time: 21:18:53
(UTC-03:00)

A-11 Canister half - Pass Details

Date: 14 April 2026
Orbit: 1515 x 1684 km, 47.2° (Epoch: 16 May)

Event Time Altitude Azimuth Distance (km) Brightness Sun altitude
Rises 13:00:26 0° 343° (NNW) 4,874 12.0 59.4°
Reaches altitude 10° 13:04:06 10° 354° (N) 3,907 11.6 58.6°
Maximum altitude 13:12:35 31° 52° (NE) 2,640 10.5 56.8°
Drops below altitude 10° 13:21:05 10° 109° (ESE) 3,944 10.9 55.0°
Sets 13:24:45 0° 119° (ESE) 4,926 11.3 54.2°
